This is the latest recevied weather packets stored in our database for station/object CE3SUR-17. If no packets are shown the sender has not sent any weather packets the latest 10 day(s).
| Time | Temp. | Humidity | Pressure | Rain* | Wind** | Luminosity | Snow |
|---|---|---|---|---|---|---|---|
| 1777809526 | 17.78° C | 48% | 959.5 hPa | - | - | - | - |
| 1777807726 | 17.78° C | 47% | 959.1 hPa | - | - | - | - |
| 1777805926 | 17.78° C | 47% | 958.6 hPa | - | - | - | - |
| 1777804126 | 18.33° C | 48% | 958.6 hPa | - | - | - | - |
| 1777802329 | 18.33° C | 47% | 958.5 hPa | - | - | - | - |
| 1777800529 | 18.89° C | 47% | 958.5 hPa | - | - | - | - |
| 1777798728 | 18.89° C | 47% | 958.3 hPa | - | - | - | - |
| 1777796928 | 19.44° C | 47% | 958.6 hPa | - | - | - | - |
| 1777795128 | 19.44° C | 47% | 959.1 hPa | - | - | - | - |
| 1777793328 | 20° C | 47% | 959.4 hPa | - | - | - | - |
| 1777791527 | 20° C | 47% | 959.3 hPa | - | - | - | - |
| 1777789727 | 20.56° C | 47% | 958.8 hPa | - | - | - | - |
| 1777787927 | 21.11° C | 46% | 958.7 hPa | - | - | - | - |
| 1777786127 | 21.11° C | 46% | 958.6 hPa | - | - | - | - |
| 1777784326 | 21.67° C | 46% | 959.1 hPa | - | - | - | - |
| 1777782526 | 21.67° C | 46% | 959.3 hPa | - | - | - | - |
| 1777780729 | 22.22° C | 46% | 959.5 hPa | - | - | - | - |
| 1777778929 | 22.78° C | 46% | 959.5 hPa | - | - | - | - |
| 1777777128 | 22.78° C | 46% | 959.4 hPa | - | - | - | - |
| 1777775328 | 23.33° C | 46% | 958.9 hPa | - | - | - | - |
| 1777773527 | 23.89° C | 46% | 958.5 hPa | - | - | - | - |
| 1777771727 | 23.89° C | 45% | 958.6 hPa | - | - | - | - |
| 1777769927 | 24.44° C | 45% | 958.9 hPa | - | - | - | - |
| 1777768127 | 25° C | 45% | 959 hPa | - | - | - | - |
| 1777766327 | 26.11° C | 45% | 958.7 hPa | - | - | - | - |
* Rain since midnight (hover to see other rain measurements)
** Current wind speed in m/s (hover to see current wind gust speed)